sat.trackr.live / text

‹ back to catalog

GSAT0204 (GALILEO 8)

NORAD 40545 · 2015-017B

PAYLOAD ACTIVE UNKNOWN

§ Identity

Operator
Country
ESA
Launch date
2015-03-27
Launch site
FRGUI
Launch vehicle
Mass (kg)
RCS (m²)
9.46

Purposes: earth_obs, nav

External: N2YO · Heavens-Above · Gunter

§ Orbital elements

Epoch: 2026-09-15T05:11:04.439040Z

Period
844.69 min
Inclination
56.7569°
Eccentricity
0.0004701
Mean motion
1.70475989 rev/d
Perigee alt
23,208.0 km
Apogee alt
23,235.9 km
Semi-major
29,600.1 km
B*
0.0000e+0
RAAN
339.1610°
Arg perigee
240.8437°
Mean anomaly
119.1615°
Rev number
3,378

§ Raw data

GSAT0204 (GALILEO 8)1 40545U 15017B   26258.21602360 -.00000103  00000+0  00000+0 0  99982 40545  56.7569 339.1610 0004701 240.8437 119.1615  1.70475989 33786

JSON: /api/v1/satellites/40545 · /tle

For live sub-satellite position, see the globe view (requires WebGL).

§ Visibility from observer

Set your observer location to see the next 7 days of passes ≥ 10°. The values pass through the URL so the page stays shareable.

No JS? Fill the form by hand. The geolocation button needs JavaScript.